Tracking 20241 objects as of 26-Jan-2020
HD Live streaming from Space Station
objects crossing your sky now

COSMOS 2251 DEB

Track COSMOS 2251 DEB now!
10-day predictions


NORAD ID: 34333
Int'l Code: 1993-036PF
Perigee: 482.6 km
Apogee: 521.4 km
Inclination: 74.0 °
Period: 94.5 minutes
Semi major axis: 6872 km
RCS: 0.034 m2 (small)
Launch date: June 16, 1993
Source: Commonwealth of Independent States (former USSR) (CIS)
Launch site: PLESETSK MISSILE AND SPACE COMPLEX (PKMTR)

Note: This is SATELLITE DEBRIS
aabbcc
Your satellite tracking list
Your tracking list is empty




NASA's NSSDC Master Catalog

Two Line Element Set (TLE):
1 34333U 93036PF  20026.17955513  .00009153  00000-0  37924-3 0  9999
2 34333  74.0124  72.6903 0028194 295.3260  64.5020 15.23645506590664
Source of the keplerian elements: AFSPC